{"data":{"norad_id":68822,"epoch":"2026-05-25T00:59:00.152736Z","epoch_age_seconds":68525,"freshness":"FRESH","line1":"1 68822U 26089W   26145.04097399  .00361909  00000+0  22962-2 0  9990","line2":"2 68822  97.2848 351.7074 0002337  43.2009 316.9439 15.75487449  5055","mean_motion":15.75487449,"eccentricity":0.0002337,"inclination_deg":97.2848,"raan_deg":351.7074,"arg_perigee_deg":43.2009,"mean_anomaly_deg":316.9439,"bstar":0.0022962,"rev_number":505,"period_min":91.400283824159,"perigee_km":341.67365945917,"apogee_km":344.81523314717,"semimajor_km":6721.3814463032,"source":"CELESTRAK","updated_at":"2026-05-25T13:38:22.044318Z"}}